{"data":{"norad_id":61935,"intl_designator":"2024-207Z","name":"STARLINK-32500","alt_names":[],"object_type":"PAYLOAD","status":"ACTIVE","operator":null,"country":"US","launch_date":"2024-11-11","launch_site_code":"AFETR","launch_vehicle":null,"mission":null,"orbit_class":"UNKNOWN","rcs_meters":null,"size_class":null,"mass_kg":null,"dimensions":null,"purposes":["comms"],"wikipedia_slug":null,"has_3d_model":false,"image_url":null,"decayed_at":null,"tle_current":{"epoch":"2026-05-25T05:09:05.893056Z","epoch_age_seconds":50459,"freshness":"FRESH","line1":"1 61935U 24207Z   26145.21465154  .00012690  00000+0  46974-3 0  9995","line2":"2 61935  42.9943 213.1908 0000765 299.6317  60.4458 15.27587746 86380","mean_motion":15.27587746,"eccentricity":7.65e-5,"inclination_deg":42.9943,"raan_deg":213.1908,"arg_perigee_deg":299.6317,"mean_anomaly_deg":60.4458,"bstar":0.00046974,"rev_number":8638,"period_min":94.266270711496,"perigee_km":482.50102286506,"apogee_km":483.55078078904,"semimajor_km":6861.1629018271,"source":"CELESTRAK","updated_at":"2026-05-25T13:38:19.485448Z"}}}